map of BKH home
BKH - Airport
Location
City:  Kekaha, Kauai, Hawaii, United States
Name:Barking Sands Pacific Missile Range Facility (PMRF) Airport
ICAO:PHBK
IATA:BKH
FAA LID:BKH

Details
Type:Airport (Airfield)
Use:Military
Latitude:2201'22"N (22.022770)
Longitude:15947'06"W (-159.785062)
Datum:WGS 1984
Elevation:18 ft (5 m)
Variation:9.41E (WMM2015 magnetic declination)
-0.04 annual change
Runways:1
Longest:6002 × 150 ft (1829 × 45.5 m), paved

Time
Time Zone:UTC-10
Local Time:

Weather
METAR:PHBK 192156Z AUTO 31006KT 10SM CLR 29/21 A2992 RMK AO2 SLP134 T02940206

Related Locations
Nearby:
Farthest:GOG: 12358 mi / 19888 km
Gobabis, OH, NA

Find:

   beyond  
but within

Other Information
Maps:
NOTAMs:
Links:
Sources:

  
  • flag of United States
  • flag of Hawaii
  

Sectional Chart

Flight Planning
at skyvector.com

Satellite Image

Google Maps Satellite view

 

Copyright © 2004-2018 Karl L. Swartz. All rights reserved.
The Great Circle Mapper name and logo are trademarks of the Great Circle Mapper.
All other trademarks mentioned herein belong to their respective owners.
Please see credits for attibutions and further copyright information.

  Follow gcmap on Facebook Follow gcmap on Twitter Follow gcmap on Google+ GCmap on LinkedIn

hCard Microformat

Geo Microformat